Powrót do katalogu

STARLINK-2685

AktywnyŁącznośćVLEO
NORAD 48468·PAYLOAD·🇺🇸 United States

Wystrzelony May 9, 2021 z Cape Canaveral Space Force Station

Loading…

Następne Przeloty (najbliższe 24 godziny)

TLE

ŚwieżeSource: CelesTrak SupGP

Epoka: Sep 15, 2026, 00:59 UTC

1 48468C 21040AS  26258.04145833  .00014848  00000+0  43311-3 0  2585
2 48468  53.1599  29.8726 0001382  30.8663 326.9094 15.34785538    11

Śledź STARLINK-2685 w czasie rzeczywistym z AllMySat

Download on the App Store